Location: Hookston
(37.9413°N, 122.0527°W)
Time: 15:43:43
(UTC+00:00)

Cosmos 1727 Rocket - Pass Details

Date: 29 May 2024
Orbit: 961 x 996 km, 82.9° (Epoch: 18 June)

Event Time Altitude Azimuth Distance (km) Brightness Sun altitude
Rises 12:02:43 0° 355° (N) 3,679 7.5 -8.4°
Reaches altitude 10° 12:05:15 10° 358° (N) 2,733 6.8 -8.0°
Maximum altitude 12:11:30 70° 82° (E) 1,043 4.4 -7.0°
Drops below altitude 10° 12:17:46 10° 166° (SSE) 2,740 6.2 -6.0°
Sets 12:20:18 0° 168° (SSE) 3,688 6.8 -5.6°
